Weather History for Ukiah, CA

Change the Weather History Date:

Thursday, October 25, 2012

  Actual Average Record
Temperature  
Mean Temperature 57 °F 58 °F  
Max Temperature 66 °F 73 °F 95 °F (1917)
Min Temperature 48 °F 42 °F 30 °F (1939)
Degree Days  
Heating Degree Days 9 8  
Month to date heating degree days 115  
Since 1 July heating degree days 148  
Cooling Degree Days 0 0  
Month to date cooling degree days 19  
Year to date cooling degree days 832  
Growing Degree Days 6 (Base 50)    
Moisture  
Dew Point 47 °F    
Average Humidity 72    
Maximum Humidity 100    
Minimum Humidity 44    
Precipitation  
Precipitation 0.00 in 0.13 in 1.32 in (1979)
Month to date precipitation 1.56 1.26  
Year to date precipitation 20.48 25.23  
Since 1 July precipitation 1.56 1.85  
Snow  
Snow 0.00 in - - ()
Month to date snowfall 0.0  
Since 1 July snowfall 0.0  
Since 1 September snowfall 0.0  
Snow Depth -    
Sea Level Pressure  
Sea Level Pressure 30.24 in    
Wind  
Wind Speed 1 mph (WNW)    
Max Wind Speed 6 mph    
Max Gust Speed 8 mph    
Visibility 10 miles    
Events      
T = Trace of Precipitation, MM = Missing Value Source: NWS Daily Summary

Daily Weather History Graph

Daily Weather History Graph

Search for Another Location

Airport:

Trip Planner

Search our weather history database for the weather conditions in past years. The results will help you decide how hot, cold, wet, or windy it might be!

Date:

Astronomy

Oct. 25, 2012 Rise Set
Actual Time 7:33 AM PDT 6:19 PM PDT
Civil Twilight 7:06 AM PDT 6:46 PM PDT
Nautical Twilight 6:34 AM PDT 7:18 PM PDT
Astronomical Twilight 6:03 AM PDT 7:49 PM PDT
Moon 4:07 PM PDT (10/25) 3:37 AM PDT (10/25)
Length of Visible Light 11h 40m
Length of Day
10h 46m
Waxing Gibbous, 85% of the Moon is Illuminated
Oct 25
Waxing Gibbous
Oct 29
Full
Nov 6
Last Quarter
Nov 13
New
Nov 20
First Quarter

Hourly Weather History & Observations

Time (PDT) Temp. Dew Point Humidity Pressure Visibility Wind Dir Wind Speed Gust Speed Precip Events Conditions
12:16 AM 50.0 °F 48.2 °F 94% 30.21 in 10.0 mi Calm Calm - N/A   Overcast
12:56 AM 51.1 °F 48.9 °F 92% 30.20 in 10.0 mi Calm Calm - N/A   Overcast
1:09 AM 50.0 °F 48.2 °F 94% 30.20 in 10.0 mi Calm Calm - N/A   Overcast
1:32 AM 51.8 °F 48.2 °F 88% 30.20 in 10.0 mi Calm Calm - N/A   Overcast
1:52 AM 51.8 °F 48.2 °F 88% 30.21 in 10.0 mi Calm Calm - N/A   Overcast
1:56 AM 51.1 °F 48.9 °F 92% 30.21 in 10.0 mi Calm Calm - N/A   Overcast
2:10 AM 50.0 °F 48.2 °F 94% 30.22 in 10.0 mi Calm Calm - N/A   Overcast
2:19 AM 51.8 °F 48.2 °F 88% 30.22 in 9.0 mi Calm Calm - N/A   Overcast
2:56 AM 51.1 °F 48.0 °F 89% 30.22 in 10.0 mi Calm Calm - N/A   Overcast
3:56 AM 51.1 °F 48.9 °F 92% 30.21 in 10.0 mi Calm Calm - N/A   Overcast
4:03 AM 51.8 °F 48.2 °F 88% 30.21 in 10.0 mi Calm Calm - N/A   Overcast
4:49 AM 51.8 °F 48.2 °F 88% 30.21 in 10.0 mi Calm Calm - N/A   Overcast
4:56 AM 51.1 °F 48.9 °F 92% 30.21 in 10.0 mi Calm Calm - N/A   Overcast
5:17 AM 51.8 °F 48.2 °F 88% 30.22 in 10.0 mi Calm Calm - N/A   Overcast
6:25 AM 50.0 °F 48.2 °F 94% 30.23 in 10.0 mi Calm Calm - N/A   Overcast
6:56 AM 48.9 °F 48.0 °F 97% 30.24 in 10.0 mi Calm Calm - N/A   Mostly Cloudy
7:42 AM 48.2 °F 46.4 °F 93% 30.25 in 10.0 mi WNW 3.5 mph - N/A   Partly Cloudy
7:56 AM 48.0 °F 46.9 °F 96% 30.26 in 10.0 mi WNW 4.6 mph - N/A   Partly Cloudy
8:11 AM 48.2 °F 46.4 °F 93% 30.28 in 10.0 mi NNW 3.5 mph - N/A   Scattered Clouds
8:48 AM 48.2 °F 46.4 °F 93% 30.28 in 10.0 mi NNW 4.6 mph - N/A   Mostly Cloudy
8:56 AM 48.9 °F 46.9 °F 93% 30.28 in 10.0 mi NW 4.6 mph - N/A   Mostly Cloudy
9:24 AM 51.8 °F 46.4 °F 82% 30.29 in 10.0 mi Calm Calm - N/A   Scattered Clouds
10:56 AM 55.0 °F 46.9 °F 74% 30.29 in 10.0 mi Calm Calm - N/A   Clear
11:56 AM 57.9 °F 46.9 °F 67% 30.29 in 10.0 mi Calm Calm - N/A   Clear
12:56 PM 61.0 °F 44.1 °F 54% 30.27 in 10.0 mi Calm Calm - N/A   Clear
1:56 PM 63.0 °F 42.1 °F 46% 30.25 in 10.0 mi Calm Calm - N/A   Clear
2:56 PM 63.0 °F 41.0 °F 45% 30.23 in 10.0 mi West 3.5 mph - N/A   Clear
3:56 PM 64.9 °F 42.1 °F 43% 30.22 in 10.0 mi South 3.5 mph - N/A   Clear
4:56 PM 64.0 °F 45.0 °F 50% 30.23 in 10.0 mi West 4.6 mph - N/A   Clear
6:56 PM 55.9 °F 46.0 °F 69% 30.25 in 10.0 mi Calm Calm - N/A   Clear
7:56 PM 54.0 °F 46.9 °F 77% 30.27 in 10.0 mi West 3.5 mph - N/A   Clear
9:56 PM 50.0 °F 46.0 °F 86% 30.27 in 10.0 mi Calm Calm - N/A   Clear
10:56 PM 50.0 °F 45.0 °F 83% 30.27 in 10.0 mi Calm Calm - N/A   Clear
11:56 PM 48.0 °F 45.0 °F 89% 30.28 in 10.0 mi Calm Calm - N/A   Clear